COSMOS 1833

Satellite information

Favourite Embed

Satellite Type and Status

PAYLOADIN ORBIT

Key statistics

Satellite COSMOS 1833 at a glance.

Uptime

14151

Days in orbit

Revolutions

≈ 14.1

Per day

Orbit

LEO

Low Earth Orbit

Inclination

70.9

Latest

Satellite identification and parameters

Extended collection of information and parameters for COSMOS 1833.

Object identification

Identified? True

Debris? False

Object name: COSMOS 1833

International designator: 1987-027A

Object number (NORAD): 17589

Object ID (CCSDS): 17589

Country: COMMONWEALTH OF INDEPENDENT STATES (CIS)

Current information (Y/N): Y

RCS size: LARGE

Orbital parameters

Period: 101.909 minutes

Inclination: 70.9137 deg

SMA: 7227.188 km

Apoapsis: 865.325 km

Periapsis: 832.782 km

RAAN: 150.0141 deg

Eccentricy: 0.00225143

Argument of periapsis: 332.5461 deg

Mean anomaly: 27.4469 deg

Mean motion: 14.13021247 rev/day

Mean motion (dot): 0.00000157 rev/day2

B* drag term: 0.00010966552 1/REarth

Two-line elements (TLE)

Creation date: Dec. 12, 2025, 10:14 a.m.

Reference frame: TEME

Reference center: EARTH

Epoch: Dec. 12, 2025, 3:38 a.m. UTC

TLE line 0: 0 COSMOS 1833

TLE line 1: 1 17589U 87027A 25346.15145511 .00000157 00000-0 10967-3 0 9996

TLE line 2: 2 17589 70.9137 150.0141 0022514 332.5461 27.4469 14.13021247997944

Live tracking on map

Real-time ground track for satellite COSMOS 1833.

In-orbit conjunctions

A list of the most updated potential collisions computed for object COSMOS 1833.

Target Orbit TCA Probability of collision Miss distance Type
FENGYUN 1C DEB SSO 2025-04-30 18:27:37 0.0007383428 215.0 (m) DEBRIS
METEOR 1-5 DEB LEO 2025-03-25 19:34:40 0.0001717779 870.0 (m) DEBRIS
FENGYUN 1C DEB SSO 2025-03-19 10:35:34 0.0001014664 386.0 (m) DEBRIS
CZ-6A DEB LEO 2025-02-11 18:12:25 0.001269331 184.0 (m) DEBRIS
FENGYUN 1C DEB SSO 2025-01-10 02:12:10 0.0001135088 976.0 (m) DEBRIS

Associated space launch

Dynamic simulator of the Tselina-2 ELINT satellite

COSMOS 1833 was lifted into orbit during the mission ‘Zenit-2 | GVM Tselina-2’, on board a Zenit-2 space rocket.

The launch took place on March 18, 1987, 8:30 a.m. from 45/1.

For more information about the launch, click the button.

Launch to space Zenit-2 | GVM Tselina-2
Zenit-2 | GVM Tselina-2

Agency: N/A

Status: Launch Successful

Launch date: March 18, 1987, 8:30 a.m. UTC

Rocket: Zenit-2

Launch pad: 45/1

Location: Baikonur Cosmodrome, Republic of Kazakhstan

...

Latest news about this satellite

There are no fresh news available about this satellite. Check back as we update our databases every day.


Newsletter sign-up

Weekly statistics, charts and insights to help you stay on top of the space industry.